Lid_Strength_Index
2 4 3 5 10 12 15 13 10 10 10 8 8 9 10 9 11 12 3 1 0 0 -0 -0 -1 -2 -2 -2 -2 -2 -2 -2 -2 -2 -2 -3 -3 -3 -2 -2 -3 -2 -2 -2 -2 -2 -2 -2 -2
5 2 4 7 13 16 15 12 11 10 9 6 6 7 8 11 6 5 4 1 -0 -0 -0 -0 -1 -2 -2 -2 -2 -2 -2 -2 -2 -2 -3 -3 -2 -2 -2 -2 -3 -3 -2 -2 -2 -2 -2 -2 -2
5 3 7 10 13 15 15 11 9 9 8 8 8 6 7 9 5 4 2 1 -0 -0 -0 0 -1 -2 -2 -2 -2 -2 -2 -2 -2 -2 -2 -2 -2 -2 -2 -2 -3 -3 -2 -2 -2 -2 -2 -2 -2
4 5 8 13 15 13 11 9 10 9 8 6 7 9 6 5 4 3 0 1 0 -0 -0 -0 -1 -2 -1 -2 -2 -3 -2 -2 -2 -2 -2 -2 -2 -2 -2 -2 -2 -2 -2 -2 -2 -2 -2 -2 -2
6 9 13 16 13 11 10 8 9 9 10 8 7 9 8 5 2 1 1 0 1 0 0 -0 -1 -2 -2 -2 -2 -2 -3 -2 -2 -2 -2 -2 -2 -2 -2 -2 -2 -2 -3 -2 -2 -2 -2 -2 -2
8 10 16 18 13 10 9 8 9 10 10 8 8 8 8 3 3 1 0 1 0 1 0 0 -0 -1 -2 -2 -2 -2 -2 -2 -2 -2 -2 -2 -2 -2 -2 -2 -2 -2 -2 -2 -2 -2 -2 -2 -2
9 12 15 17 13 11 9 10 9 9 11 8 6 9 8 5 2 1 1 0 0 1 1 0 -1 -1 -1 -1 -0 -2 -2 -2 -2 -2 -2 -2 -2 -2 -2 -2 -2 -2 -2 -2 -2 -2 -2 -2 -2
8 10 15 15 13 12 9 9 8 9 10 6 6 10 9 5 2 1 1 1 0 0 1 0 -0 -1 -1 -0 -0 -0 -1 -1 -1 -1 -1 -0 -1 -1 -1 -1 -2 -2 -2 -2 -1 -2 -2 -2 -2
8 12 14 14 13 12 8 9 8 8 8 7 6 7 5 3 2 2 2 2 1 1 0 -0 0 -0 -0 1 1 0 -0 -0 0 0 1 1 1 0 -0 -0 -1 -2 -2 -1 -1 -2 -2 -1 -1
9 13 13 9 11 11 9 9 9 9 9 8 8 6 4 3 3 4 4 3 3 2 1 0 0 0 0 1 1 0 0 0 1 1 1 1 1 1 0 1 0 -1 -1 -2 -1 -1 -0 0 0
8 13 9 10 9 9 9 9 9 10 11 10 9 7 6 4 4 4 3 3 3 2 1 0 0 0 1 2 2 1 1 1 1 1 1 1 1 2 1 -1 1 1 2 2 2 2 2 2 2
11 10 11 9 10 10 9 7 9 8 9 7 6 5 5 5 4 4 4 3 2 2 1 0 1 0 0 1 2 2 1 1 1 1 1 1 1 3 2 1 1 1 2 3 3 3 3 3 3
11 10 10 11 11 10 9 8 9 8 7 5 5 4 5 5 5 3 3 2 2 2 1 1 0 1 0 1 1 2 2 1 0 1 2 -0 0 3 3 2 1 2 3 3 4 3 3 4 4
10 10 11 12 12 12 11 9 8 7 7 7 5 5 5 5 5 5 3 3 2 2 1 1 1 0 0 0 0 1 2 1 1 1 1 1 -0 1 2 2 2 2 3 3 4 4 4 4 4
10 13 13 12 12 12 11 11 10 12 9 9 8 8 7 6 4 4 3 3 2 2 1 1 0 -0 1 1 0 1 2 2 2 2 1 1 -1 1 2 3 3 2 2 3 4 4 5 5 4
12 14 16 13 12 12 11 15 11 11 12 12 11 10 9 8 7 4 3 3 2 1 1 1 0 1 1 1 1 1 1 2 2 2 2 0 0 0 2 3 3 2 2 2 4 4 5 6 6
14 16 15 14 11 12 13 16 12 11 12 12 12 11 11 11 10 9 7 2 3 2 1 1 1 1 1 1 1 1 2 2 2 3 2 1 0 0 2 2 2 2 2 3 3 5 5 6 6
16 16 15 16 12 12 14 15 13 12 13 14 13 12 11 11 9 8 7 5 2 2 2 1 1 1 1 1 1 0 1 2 2 3 3 1 0 0 1 2 2 2 3 3 3 4 5 5 5
14 16 17 14 12 13 14 15 14 13 13 13 13 12 11 11 10 9 7 7 5 4 2 2 1 1 1 1 1 1 2 2 1 2 3 2 0 0 1 1 2 1 2 2 3 4 6 7 8
13 15 16 14 12 13 15 15 14 12 13 13 13 13 12 11 11 11 9 8 7 7 7 6 1 1 1 1 1 1 1 1 1 1 2 2 1 1 1 1 1 2 1 2 3 4 6 7 8
14 15 15 14 13 13 15 16 15 14 12 12 12 12 13 12 12 12 11 10 8 8 8 8 7 2 1 1 0 1 1 1 2 2 2 2 2 1 1 1 1 1 1 1 2 3 5 6 7
15 13 13 14 15 17 15 21 16 14 14 12 12 13 13 13 12 12 12 11 11 9 8 7 7 7 2 1 1 2 2 3 3 2 2 2 2 2 1 1 1 2 2 2 2 3 3 4 6
14 12 14 14 15 17 16 20 18 15 16 14 13 12 12 12 12 12 12 11 11 10 10 9 8 6 6 1 1 1 2 1 1 2 2 2 3 2 2 2 2 2 2 3 3 3 4 4 5
12 15 16 16 17 24 16 19 19 15 14 14 14 13 12 12 12 12 11 11 11 11 11 11 9 8 6 6 2 2 2 3 3 2 3 3 3 3 2 2 2 2 2 3 3 4 4 4 4
14 20 27 25 26 25 17 18 16 14 14 13 13 13 13 13 12 12 12 12 12 12 11 11 11 10 8 6 6 4 2 2 3 3 2 3 3 3 3 3 2 2 2 2 2 3 4 4 5
15 16 24 27 25 23 17 19 16 13 12 12 13 12 12 12 11 11 11 12 12 12 11 11 10 10 9 8 6 6 3 1 2 2 2 2 2 2 2 2 2 2 2 2 2 2 3 4 4
17 20 13 21 21 22 21 18 14 14 14 13 13 12 12 12 11 11 11 11 11 11 11 10 9 9 9 9 8 5 4 1 1 1 2 2 2 1 1 2 2 2 2 2 2 2 3 3 4
14 13 21 22 27 27 23 21 19 16 15 14 14 13 12 12 12 12 12 12 11 11 11 10 9 9 9 8 7 6 5 2 1 1 1 1 1 1 1 1 1 2 2 2 3 2 3 3 3
14 19 16 15 18 23 25 23 15 15 14 14 14 13 13 12 12 12 12 12 12 12 12 11 11 10 9 8 6 5 3 2 1 1 1 1 1 1 1 1 2 2 2 2 2 2 2 3 3
12 15 15 22 24 21 21 22 14 14 14 13 14 13 14 14 13 13 12 13 13 13 12 12 12 11 10 9 7 6 4 3 4 4 5 4 4 3 1 1 1 2 2 2 3 2 2 3 3